Location: Medlow Airstrip Trail, Medlow Bath NSW 2780, Australia
(33.6682°S, 150.3233°E)
Time: 10:25:14
(UTC+11:00)

Explorer 11/Cluster Stage 4 - Pass Details

Date: 24 September 2019
Orbit: 467 x 1259 km, 28.8° (Epoch: 14 October)

Event Time Altitude Azimuth Distance (km) Brightness Sun altitude
Rises 12:47:40 0° 270° (W) 3,494 10.1 54.1°
Reaches altitude 10° 12:50:13 10° 278° (W) 2,673 9.7 53.9°
Maximum altitude 12:56:20 40° 345° (NNW) 1,548 10.0 53.3°
Drops below altitude 10° 13:03:29 10° 50° (NE) 3,127 9.9 52.6°
Sets 13:06:43 0° 57° (ENE) 4,150 10.3 52.2°
